Year,Month,Day,Hour,Minute,Value (Times are PST for temperature in C)
2012,07,14,00,00,16.10
2012,07,14,00,01,16.10
2012,07,14,00,02,16.10
2012,07,14,00,03,16.10
2012,07,14,00,04,16.10
2012,07,14,00,05,16.10
2012,07,14,00,06,16.10
2012,07,14,00,07,16.10
2012,07,14,00,08,16.10
2012,07,14,00,09,16.10
2012,07,14,00,10,16.10
2012,07,14,00,11,16.00
2012,07,14,00,12,16.00
2012,07,14,00,13,16.00
2012,07,14,00,14,16.00
2012,07,14,00,15,16.00
2012,07,14,00,16,16.00
2012,07,14,00,17,16.00
2012,07,14,00,18,15.90
2012,07,14,00,19,15.90
2012,07,14,00,20,15.90
2012,07,14,00,21,15.90
2012,07,14,00,22,15.90
2012,07,14,00,23,15.90
2012,07,14,00,24,15.90
2012,07,14,00,25,16.00
2012,07,14,00,26,16.00
2012,07,14,00,27,16.00
2012,07,14,00,28,16.10
2012,07,14,00,29,16.10
2012,07,14,00,30,16.10
2012,07,14,00,31,16.10
2012,07,14,00,32,16.10
2012,07,14,00,33,16.10
2012,07,14,00,34,16.10
2012,07,14,00,35,16.10
2012,07,14,00,36,16.10
2012,07,14,00,37,16.10
2012,07,14,00,38,16.10
2012,07,14,00,39,16.10
2012,07,14,00,40,16.10
2012,07,14,00,41,16.00
2012,07,14,00,42,16.00
2012,07,14,00,43,16.00
2012,07,14,00,44,16.00
2012,07,14,00,45,16.00
2012,07,14,00,46,16.00
2012,07,14,00,47,16.00
2012,07,14,00,48,15.90
2012,07,14,00,49,15.90
2012,07,14,00,50,15.90
2012,07,14,00,51,15.90
2012,07,14,00,52,15.90
2012,07,14,00,53,15.90
2012,07,14,00,54,15.90
2012,07,14,00,55,15.90
2012,07,14,00,56,15.90
2012,07,14,00,57,15.90
2012,07,14,00,58,15.90
2012,07,14,00,59,15.90
2012,07,14,01,00,15.90
2012,07,14,01,01,15.90
2012,07,14,01,02,15.90
2012,07,14,01,03,15.90
2012,07,14,01,04,15.90
2012,07,14,01,05,15.90
2012,07,14,01,06,15.90
2012,07,14,01,07,15.90
2012,07,14,01,08,15.90
2012,07,14,01,09,15.80
2012,07,14,01,10,15.80
2012,07,14,01,11,15.80
2012,07,14,01,12,15.80
2012,07,14,01,13,15.70
2012,07,14,01,14,15.70
2012,07,14,01,15,15.70
2012,07,14,01,16,15.60
2012,07,14,01,17,15.60
2012,07,14,01,18,15.60
2012,07,14,01,19,15.60
2012,07,14,01,20,15.60
2012,07,14,01,21,15.60
2012,07,14,01,22,15.50
2012,07,14,01,23,15.50
2012,07,14,01,24,15.50
2012,07,14,01,25,15.50
2012,07,14,01,26,15.50
2012,07,14,01,27,15.50
2012,07,14,01,28,15.50
2012,07,14,01,29,15.50
2012,07,14,01,30,15.60
2012,07,14,01,31,15.60
2012,07,14,01,32,15.60
2012,07,14,01,33,15.60
2012,07,14,01,34,15.60
2012,07,14,01,35,15.60
2012,07,14,01,36,15.60
2012,07,14,01,37,15.60
2012,07,14,01,38,15.50
2012,07,14,01,39,15.50
2012,07,14,01,40,15.50
2012,07,14,01,41,15.50
2012,07,14,01,42,15.50
2012,07,14,01,43,15.50
2012,07,14,01,44,15.50
2012,07,14,01,45,15.50
2012,07,14,01,46,15.50
2012,07,14,01,47,15.50
2012,07,14,01,48,15.50
2012,07,14,01,49,15.50
2012,07,14,01,50,15.50
2012,07,14,01,51,15.50
2012,07,14,01,52,15.50
2012,07,14,01,53,15.50
2012,07,14,01,54,15.40
2012,07,14,01,55,15.40
2012,07,14,01,56,15.40
2012,07,14,01,57,15.40
2012,07,14,01,58,15.40
2012,07,14,01,59,15.40
2012,07,14,02,00,15.40
2012,07,14,02,01,15.50
2012,07,14,02,02,15.50
2012,07,14,02,03,15.50
2012,07,14,02,04,15.60
2012,07,14,02,05,15.60
2012,07,14,02,06,15.60
2012,07,14,02,07,15.70
2012,07,14,02,08,15.70
2012,07,14,02,09,15.70
2012,07,14,02,10,15.80
2012,07,14,02,11,15.80
2012,07,14,02,12,15.80
2012,07,14,02,13,15.80
2012,07,14,02,14,15.90
2012,07,14,02,15,15.90
2012,07,14,02,16,15.90
2012,07,14,02,17,15.90
2012,07,14,02,18,16.00
2012,07,14,02,19,16.00
2012,07,14,02,20,16.00
2012,07,14,02,21,15.90
2012,07,14,02,22,15.90
2012,07,14,02,23,15.90
2012,07,14,02,24,15.90
2012,07,14,02,25,16.00
2012,07,14,02,26,16.00
2012,07,14,02,27,16.10
2012,07,14,02,28,16.10
2012,07,14,02,29,16.10
2012,07,14,02,30,16.20
2012,07,14,02,31,16.20
2012,07,14,02,32,16.30
2012,07,14,02,33,16.30
2012,07,14,02,34,16.30
2012,07,14,02,35,16.40
2012,07,14,02,36,16.40
2012,07,14,02,37,16.40
2012,07,14,02,38,16.40
2012,07,14,02,39,16.50
2012,07,14,02,40,16.50
2012,07,14,02,41,16.50
2012,07,14,02,42,16.50
2012,07,14,02,43,16.50
2012,07,14,02,44,16.50
2012,07,14,02,45,16.60
2012,07,14,02,46,16.60
2012,07,14,02,47,16.60
2012,07,14,02,48,16.60
2012,07,14,02,49,16.60
2012,07,14,02,50,16.60
2012,07,14,02,51,16.60
2012,07,14,02,52,16.60
2012,07,14,02,53,16.60
2012,07,14,02,54,16.60
2012,07,14,02,55,16.50
2012,07,14,02,56,16.50
2012,07,14,02,57,16.50
2012,07,14,02,58,16.40
2012,07,14,02,59,16.40
2012,07,14,03,00,16.40
2012,07,14,03,01,16.40
2012,07,14,03,02,16.30
2012,07,14,03,03,16.30
2012,07,14,03,04,16.30
2012,07,14,03,05,16.30
2012,07,14,03,06,16.30
2012,07,14,03,07,16.20
2012,07,14,03,08,16.20
2012,07,14,03,09,16.20
2012,07,14,03,10,16.20
2012,07,14,03,11,16.10
2012,07,14,03,12,16.10
2012,07,14,03,13,16.00
2012,07,14,03,14,16.00
2012,07,14,03,15,16.00
2012,07,14,03,16,15.90
2012,07,14,03,17,15.90
2012,07,14,03,18,15.90
2012,07,14,03,19,15.80
2012,07,14,03,20,15.80
2012,07,14,03,21,15.80
2012,07,14,03,22,15.80
2012,07,14,03,23,15.80
2012,07,14,03,24,15.70
2012,07,14,03,25,15.70
2012,07,14,03,26,15.70
2012,07,14,03,27,15.70
2012,07,14,03,28,15.70
2012,07,14,03,29,15.70
2012,07,14,03,30,15.70
2012,07,14,03,31,15.70
2012,07,14,03,32,15.60
2012,07,14,03,33,15.60
2012,07,14,03,34,15.60
2012,07,14,03,35,15.60
2012,07,14,03,36,15.60
2012,07,14,03,37,15.60
2012,07,14,03,38,15.60
2012,07,14,03,39,15.50
2012,07,14,03,40,15.50
2012,07,14,03,41,15.50
2012,07,14,03,42,15.50
2012,07,14,03,43,15.40
2012,07,14,03,44,15.40
2012,07,14,03,45,15.50
2012,07,14,03,46,15.50
2012,07,14,03,47,15.50
2012,07,14,03,48,15.50
2012,07,14,03,49,15.40
2012,07,14,03,50,15.40
2012,07,14,03,51,15.40
2012,07,14,03,52,15.40
2012,07,14,03,53,15.40
2012,07,14,03,54,15.40
2012,07,14,03,55,15.40
2012,07,14,03,56,15.40
2012,07,14,03,57,15.40
2012,07,14,03,58,15.30
2012,07,14,03,59,15.30
2012,07,14,04,00,15.30
2012,07,14,04,01,15.30
2012,07,14,04,02,15.30
2012,07,14,04,03,15.20
2012,07,14,04,04,15.20
2012,07,14,04,05,15.20
2012,07,14,04,06,15.20
2012,07,14,04,07,15.10
2012,07,14,04,08,15.10
2012,07,14,04,09,15.10
2012,07,14,04,10,15.10
2012,07,14,04,11,15.00
2012,07,14,04,12,15.00
2012,07,14,04,13,15.00
2012,07,14,04,14,15.00
2012,07,14,04,15,15.00
2012,07,14,04,16,15.00
2012,07,14,04,17,15.00
2012,07,14,04,18,15.00
2012,07,14,04,19,15.00
2012,07,14,04,20,15.00
2012,07,14,04,21,15.00
2012,07,14,04,22,15.00
2012,07,14,04,23,15.00
2012,07,14,04,24,15.00
2012,07,14,04,25,15.00
2012,07,14,04,26,15.10
2012,07,14,04,27,15.20
2012,07,14,04,28,15.20
2012,07,14,04,29,15.20
2012,07,14,04,30,15.30
2012,07,14,04,31,15.30
2012,07,14,04,32,15.30
2012,07,14,04,33,15.30
2012,07,14,04,34,15.40
2012,07,14,04,35,15.40
2012,07,14,04,36,15.40
2012,07,14,04,37,15.40
2012,07,14,04,38,15.40
2012,07,14,04,39,15.40
2012,07,14,04,40,15.40
2012,07,14,04,41,15.40
2012,07,14,04,42,15.40
2012,07,14,04,43,15.40
2012,07,14,04,44,15.40
2012,07,14,04,45,15.40
2012,07,14,04,46,15.40
2012,07,14,04,47,15.40
2012,07,14,04,48,15.40
2012,07,14,04,49,15.40
2012,07,14,04,50,15.40
2012,07,14,04,51,15.30
2012,07,14,04,52,15.30
2012,07,14,04,53,15.30
2012,07,14,04,54,15.30
2012,07,14,04,55,15.30
2012,07,14,04,56,15.30
2012,07,14,04,57,15.30
2012,07,14,04,58,15.30
2012,07,14,04,59,15.30
2012,07,14,05,00,15.30
2012,07,14,05,01,15.30
2012,07,14,05,02,15.30
2012,07,14,05,03,15.30
2012,07,14,05,04,15.20
2012,07,14,05,05,15.20
2012,07,14,05,06,15.20
2012,07,14,05,07,15.20
2012,07,14,05,08,15.20
2012,07,14,05,09,15.20
2012,07,14,05,10,15.20
2012,07,14,05,11,15.20
2012,07,14,05,12,15.20
2012,07,14,05,13,15.10
2012,07,14,05,14,15.10
2012,07,14,05,15,15.10
2012,07,14,05,16,15.10
2012,07,14,05,17,15.10
2012,07,14,05,18,15.10
2012,07,14,05,19,15.10
2012,07,14,05,20,15.10
2012,07,14,05,21,15.10
2012,07,14,05,22,15.10
2012,07,14,05,23,15.10
2012,07,14,05,24,15.10
2012,07,14,05,25,15.10
2012,07,14,05,26,15.10
2012,07,14,05,27,15.00
2012,07,14,05,28,15.10
2012,07,14,05,29,15.00
2012,07,14,05,30,15.00
2012,07,14,05,31,15.10
2012,07,14,05,32,15.10
2012,07,14,05,33,15.10
2012,07,14,05,34,15.10
2012,07,14,05,35,15.20
2012,07,14,05,36,15.20
2012,07,14,05,37,15.20
2012,07,14,05,38,15.20
2012,07,14,05,39,15.20
2012,07,14,05,40,15.20
2012,07,14,05,41,15.20
2012,07,14,05,42,15.20
2012,07,14,05,43,15.20
2012,07,14,05,44,15.20
2012,07,14,05,45,15.20
2012,07,14,05,46,15.20
2012,07,14,05,47,15.20
2012,07,14,05,48,15.20
2012,07,14,05,49,15.10
2012,07,14,05,50,15.10
2012,07,14,05,51,15.00
2012,07,14,05,52,15.00
2012,07,14,05,53,15.00
2012,07,14,05,54,15.00
2012,07,14,05,55,15.00
2012,07,14,05,56,15.00
2012,07,14,05,57,15.00
2012,07,14,05,58,15.00
2012,07,14,05,59,15.00
2012,07,14,06,00,15.00
2012,07,14,06,01,15.00
2012,07,14,06,02,15.00
2012,07,14,06,03,15.00
2012,07,14,06,04,14.90
2012,07,14,06,05,14.90
2012,07,14,06,06,14.90
2012,07,14,06,07,14.90
2012,07,14,06,08,14.80
2012,07,14,06,09,14.80
2012,07,14,06,10,14.80
2012,07,14,06,11,14.80
2012,07,14,06,12,14.80
2012,07,14,06,13,14.70
2012,07,14,06,14,14.70
2012,07,14,06,15,14.70
2012,07,14,06,16,14.70
2012,07,14,06,17,14.70
2012,07,14,06,18,14.70
2012,07,14,06,19,14.70
2012,07,14,06,20,14.70
2012,07,14,06,21,14.70
2012,07,14,06,22,14.70
2012,07,14,06,23,14.70
2012,07,14,06,24,14.70
2012,07,14,06,25,14.70
2012,07,14,06,26,14.70
2012,07,14,06,27,14.70
2012,07,14,06,28,14.70
2012,07,14,06,29,14.70
2012,07,14,06,30,14.70
2012,07,14,06,31,14.70
2012,07,14,06,32,14.70
2012,07,14,06,33,14.70
2012,07,14,06,34,14.70
2012,07,14,06,35,14.80
2012,07,14,06,36,14.80
2012,07,14,06,37,14.80
2012,07,14,06,38,14.80
2012,07,14,06,39,14.80
2012,07,14,06,40,14.80
2012,07,14,06,41,14.80
2012,07,14,06,42,14.80
2012,07,14,06,43,14.80
2012,07,14,06,44,14.80
2012,07,14,06,45,14.80
2012,07,14,06,46,14.80
2012,07,14,06,47,14.80
2012,07,14,06,48,14.80
2012,07,14,06,49,14.80
2012,07,14,06,50,14.80
2012,07,14,06,51,14.80
2012,07,14,06,52,14.80
2012,07,14,06,53,14.80
2012,07,14,06,54,14.80
2012,07,14,06,55,14.80
2012,07,14,06,56,14.80
2012,07,14,06,57,14.80
2012,07,14,06,58,14.80
2012,07,14,06,59,14.80
2012,07,14,07,00,14.80
2012,07,14,07,01,14.90
2012,07,14,07,02,15.00
2012,07,14,07,03,15.00
2012,07,14,07,04,15.00
2012,07,14,07,05,15.00
2012,07,14,07,06,15.00
2012,07,14,07,07,15.00
2012,07,14,07,08,15.00
2012,07,14,07,09,15.00
2012,07,14,07,10,15.00
2012,07,14,07,11,15.00
2012,07,14,07,12,15.00
2012,07,14,07,13,15.00
2012,07,14,07,14,15.10
2012,07,14,07,15,15.20
2012,07,14,07,16,15.20
2012,07,14,07,17,15.30
2012,07,14,07,18,15.40
2012,07,14,07,19,15.50
2012,07,14,07,20,15.70
2012,07,14,07,21,15.80
2012,07,14,07,22,15.90
2012,07,14,07,23,16.00
2012,07,14,07,24,16.10
2012,07,14,07,25,16.30
2012,07,14,07,26,16.40
2012,07,14,07,27,16.50
2012,07,14,07,28,16.60
2012,07,14,07,29,16.70
2012,07,14,07,30,16.80
2012,07,14,07,31,16.90
2012,07,14,07,32,17.10
2012,07,14,07,33,17.20
2012,07,14,07,34,17.30
2012,07,14,07,35,17.30
2012,07,14,07,36,17.50
2012,07,14,07,37,17.60
2012,07,14,07,38,17.80
2012,07,14,07,39,17.90
2012,07,14,07,40,18.00
2012,07,14,07,41,18.20
2012,07,14,07,42,18.30
2012,07,14,07,43,18.40
2012,07,14,07,44,18.50
2012,07,14,07,45,18.50
2012,07,14,07,46,18.70
2012,07,14,07,47,18.80
2012,07,14,07,48,18.90
2012,07,14,07,49,18.90
2012,07,14,07,50,19.00
2012,07,14,07,51,19.10
2012,07,14,07,52,19.10
2012,07,14,07,53,19.20
2012,07,14,07,54,19.30
2012,07,14,07,55,19.40
2012,07,14,07,56,19.50
2012,07,14,07,57,19.50
2012,07,14,07,58,19.60
2012,07,14,07,59,19.70
2012,07,14,08,00,19.70
2012,07,14,08,01,19.80
2012,07,14,08,02,19.80
2012,07,14,08,03,19.80
2012,07,14,08,04,19.80
2012,07,14,08,05,19.90
2012,07,14,08,06,19.90
2012,07,14,08,07,19.90
2012,07,14,08,08,19.90
2012,07,14,08,09,19.90
2012,07,14,08,10,19.80
2012,07,14,08,11,19.90
2012,07,14,08,12,19.90
2012,07,14,08,13,19.90
2012,07,14,08,14,19.90
2012,07,14,08,15,19.90
2012,07,14,08,16,19.80
2012,07,14,08,17,19.80
2012,07,14,08,18,19.80
2012,07,14,08,19,19.80
2012,07,14,08,20,19.80
2012,07,14,08,21,19.70
2012,07,14,08,22,19.70
2012,07,14,08,23,19.60
2012,07,14,08,24,19.60
2012,07,14,08,25,19.60
2012,07,14,08,26,19.50
2012,07,14,08,27,19.50
2012,07,14,08,28,19.40
2012,07,14,08,29,19.40
2012,07,14,08,30,19.40
2012,07,14,08,31,19.30
2012,07,14,08,32,19.30
2012,07,14,08,33,19.30
2012,07,14,08,34,19.20
2012,07,14,08,35,19.20
2012,07,14,08,36,19.20
2012,07,14,08,37,19.20
2012,07,14,08,38,19.10
2012,07,14,08,39,19.10
2012,07,14,08,40,19.10
2012,07,14,08,41,19.00
2012,07,14,08,42,19.00
2012,07,14,08,43,19.00
2012,07,14,08,44,18.90
2012,07,14,08,45,18.90
2012,07,14,08,46,18.90
2012,07,14,08,47,18.90
2012,07,14,08,48,18.80
2012,07,14,08,49,18.80
2012,07,14,08,50,18.80
2012,07,14,08,51,18.80
2012,07,14,08,52,18.80
2012,07,14,08,53,18.80
2012,07,14,08,54,18.80
2012,07,14,08,55,18.80
2012,07,14,08,56,18.80
2012,07,14,08,57,18.80
2012,07,14,08,58,18.80
2012,07,14,08,59,18.80
2012,07,14,09,00,18.80
2012,07,14,09,01,18.80
2012,07,14,09,02,18.80
2012,07,14,09,03,18.80
2012,07,14,09,04,18.80
2012,07,14,09,05,18.80
2012,07,14,09,06,18.80
2012,07,14,09,07,18.80
2012,07,14,09,08,18.80
2012,07,14,09,09,18.80
2012,07,14,09,10,18.80
2012,07,14,09,11,18.80
2012,07,14,09,12,18.80
2012,07,14,09,13,18.80
2012,07,14,09,14,18.80
2012,07,14,09,15,18.80
2012,07,14,09,16,18.80
2012,07,14,09,17,18.80
2012,07,14,09,18,18.90
2012,07,14,09,19,18.90
2012,07,14,09,20,18.90
2012,07,14,09,21,18.90
2012,07,14,09,22,18.90
2012,07,14,09,23,18.90
2012,07,14,09,24,18.90
2012,07,14,09,25,18.90
2012,07,14,09,26,18.90
2012,07,14,09,27,19.00
2012,07,14,09,28,19.00
2012,07,14,09,29,19.00
2012,07,14,09,30,19.10
2012,07,14,09,31,19.10
2012,07,14,09,32,19.10
2012,07,14,09,33,19.10
2012,07,14,09,34,19.10
2012,07,14,09,35,19.20
2012,07,14,09,36,19.20
2012,07,14,09,37,19.20
2012,07,14,09,38,19.20
2012,07,14,09,39,19.20
2012,07,14,09,40,19.20
2012,07,14,09,41,19.20
2012,07,14,09,42,19.20
2012,07,14,09,43,19.20
2012,07,14,09,44,19.20
2012,07,14,09,45,19.20
2012,07,14,09,46,19.20
2012,07,14,09,47,19.20
2012,07,14,09,48,19.30
2012,07,14,09,49,19.30
2012,07,14,09,50,19.30
2012,07,14,09,51,19.30
2012,07,14,09,52,19.30
2012,07,14,09,53,19.40
2012,07,14,09,54,19.40
2012,07,14,09,55,19.40
2012,07,14,09,56,19.50
2012,07,14,09,57,19.50
2012,07,14,09,58,19.60
2012,07,14,09,59,19.60
2012,07,14,10,00,19.70
2012,07,14,10,01,19.70
2012,07,14,10,02,19.80
2012,07,14,10,03,19.90
2012,07,14,10,04,20.00
2012,07,14,10,05,20.00
2012,07,14,10,06,20.10
2012,07,14,10,07,20.20
2012,07,14,10,08,20.30
2012,07,14,10,09,20.40
2012,07,14,10,10,20.50
2012,07,14,10,11,20.50
2012,07,14,10,12,20.60
2012,07,14,10,13,20.70
2012,07,14,10,14,20.80
2012,07,14,10,15,20.90
2012,07,14,10,16,21.00
2012,07,14,10,17,21.00
2012,07,14,10,18,21.00
2012,07,14,10,19,21.10
2012,07,14,10,20,21.10
2012,07,14,10,21,21.10
2012,07,14,10,22,21.10
2012,07,14,10,23,21.10
2012,07,14,10,24,21.10
2012,07,14,10,25,21.00
2012,07,14,10,26,21.00
2012,07,14,10,27,21.00
2012,07,14,10,28,21.00
2012,07,14,10,29,21.10
2012,07,14,10,30,21.20
2012,07,14,10,31,21.30
2012,07,14,10,32,21.30
2012,07,14,10,33,21.40
2012,07,14,10,34,21.40
2012,07,14,10,35,21.50
2012,07,14,10,36,21.50
2012,07,14,10,37,21.60
2012,07,14,10,38,21.70
2012,07,14,10,39,21.80
2012,07,14,10,40,21.80
2012,07,14,10,41,21.90
2012,07,14,10,42,21.90
2012,07,14,10,43,22.00
2012,07,14,10,44,22.00
2012,07,14,10,45,22.00
2012,07,14,10,46,22.10
2012,07,14,10,47,22.10
2012,07,14,10,48,22.10
2012,07,14,10,49,22.20
2012,07,14,10,50,22.20
2012,07,14,10,51,22.20
2012,07,14,10,52,22.20
2012,07,14,10,53,22.10
2012,07,14,10,54,22.10
2012,07,14,10,55,22.10
2012,07,14,10,56,22.00
2012,07,14,10,57,22.00
2012,07,14,10,58,22.00
2012,07,14,10,59,21.90
2012,07,14,11,00,21.90
2012,07,14,11,01,21.90
2012,07,14,11,02,21.80
2012,07,14,11,03,21.80
2012,07,14,11,04,21.70
2012,07,14,11,05,21.70
2012,07,14,11,06,21.60
2012,07,14,11,07,21.50
2012,07,14,11,08,21.50
2012,07,14,11,09,21.50
2012,07,14,11,10,21.60
2012,07,14,11,11,21.60
2012,07,14,11,12,21.70
2012,07,14,11,13,21.70
2012,07,14,11,14,21.80
2012,07,14,11,15,21.80
2012,07,14,11,16,21.80
2012,07,14,11,17,21.80
2012,07,14,11,18,21.70
2012,07,14,11,19,21.70
2012,07,14,11,20,21.60
2012,07,14,11,21,21.60
2012,07,14,11,22,21.60
2012,07,14,11,23,21.60
2012,07,14,11,24,21.70
2012,07,14,11,25,21.70
2012,07,14,11,26,21.80
2012,07,14,11,27,21.80
2012,07,14,11,28,21.80
2012,07,14,11,29,21.90
2012,07,14,11,30,21.90
2012,07,14,11,31,22.00
2012,07,14,11,32,22.10
2012,07,14,11,33,22.10
2012,07,14,11,34,22.10
2012,07,14,11,35,22.20
2012,07,14,11,36,22.30
2012,07,14,11,37,22.40
2012,07,14,11,38,22.40
2012,07,14,11,39,22.50
2012,07,14,11,40,22.50
2012,07,14,11,41,22.50
2012,07,14,11,42,22.50
2012,07,14,11,43,22.50
2012,07,14,11,44,22.50
2012,07,14,11,45,22.50
2012,07,14,11,46,22.50
2012,07,14,11,47,22.50
2012,07,14,11,48,22.40
2012,07,14,11,49,22.40
2012,07,14,11,50,22.40
2012,07,14,11,51,22.40
2012,07,14,11,52,22.30
2012,07,14,11,53,22.30
2012,07,14,11,54,22.20
2012,07,14,11,55,22.20
2012,07,14,11,56,22.20
2012,07,14,11,57,22.20
2012,07,14,11,58,22.20
2012,07,14,11,59,22.20
2012,07,14,12,00,22.30
2012,07,14,12,01,22.30
2012,07,14,12,02,22.30
2012,07,14,12,03,22.40
2012,07,14,12,04,22.40
2012,07,14,12,05,22.40
2012,07,14,12,06,22.50
2012,07,14,12,07,22.60
2012,07,14,12,08,22.70
2012,07,14,12,09,22.70
2012,07,14,12,10,22.80
2012,07,14,12,11,22.90
2012,07,14,12,12,23.00
2012,07,14,12,13,23.10
2012,07,14,12,14,23.30
2012,07,14,12,15,23.30
2012,07,14,12,16,23.40
2012,07,14,12,17,23.50
2012,07,14,12,18,23.50
2012,07,14,12,19,23.60
2012,07,14,12,20,23.50
2012,07,14,12,21,23.50
2012,07,14,12,22,23.40
2012,07,14,12,23,23.40
2012,07,14,12,24,23.30
2012,07,14,12,25,23.30
2012,07,14,12,26,23.20
2012,07,14,12,27,23.20
2012,07,14,12,28,23.20
2012,07,14,12,29,23.10
2012,07,14,12,30,23.00
2012,07,14,12,31,22.80
2012,07,14,12,32,22.80
2012,07,14,12,33,22.70
2012,07,14,12,34,22.70
2012,07,14,12,35,22.70
2012,07,14,12,36,22.60
2012,07,14,12,37,22.60
2012,07,14,12,38,22.60
2012,07,14,12,39,22.60
2012,07,14,12,40,22.60
2012,07,14,12,41,22.60
2012,07,14,12,42,22.60
2012,07,14,12,43,22.70
2012,07,14,12,44,22.70
2012,07,14,12,45,22.80
2012,07,14,12,46,22.90
2012,07,14,12,47,23.00
2012,07,14,12,48,23.00
2012,07,14,12,49,23.00
2012,07,14,12,50,23.10
2012,07,14,12,51,23.10
2012,07,14,12,52,23.10
2012,07,14,12,53,23.10
2012,07,14,12,54,23.10
2012,07,14,12,55,23.10
2012,07,14,12,56,23.10
2012,07,14,12,57,23.20
2012,07,14,12,58,23.20
2012,07,14,12,59,23.30
2012,07,14,13,00,23.30
2012,07,14,13,01,23.40
2012,07,14,13,02,23.50
2012,07,14,13,03,23.60
2012,07,14,13,04,23.70
2012,07,14,13,05,23.70
2012,07,14,13,06,23.70
2012,07,14,13,07,23.60
2012,07,14,13,08,23.60
2012,07,14,13,09,23.50
2012,07,14,13,10,23.40
2012,07,14,13,11,23.40
2012,07,14,13,12,23.30
2012,07,14,13,13,23.30
2012,07,14,13,14,23.30
2012,07,14,13,15,23.30
2012,07,14,13,16,23.40
2012,07,14,13,17,23.40
2012,07,14,13,18,23.50
2012,07,14,13,19,23.60
2012,07,14,13,20,23.60
2012,07,14,13,21,23.70
2012,07,14,13,22,23.70
2012,07,14,13,23,23.60
2012,07,14,13,24,23.60
2012,07,14,13,25,23.60
2012,07,14,13,26,23.60
2012,07,14,13,27,23.50
2012,07,14,13,28,23.50
2012,07,14,13,29,23.50
2012,07,14,13,30,23.60
2012,07,14,13,31,23.70
2012,07,14,13,32,23.80
2012,07,14,13,33,23.80
2012,07,14,13,34,23.80
2012,07,14,13,35,23.90
2012,07,14,13,36,23.90
2012,07,14,13,37,23.90
2012,07,14,13,38,24.00
2012,07,14,13,39,24.00
2012,07,14,13,40,23.90
2012,07,14,13,41,23.90
2012,07,14,13,42,23.90
2012,07,14,13,43,24.00
2012,07,14,13,44,24.00
2012,07,14,13,45,24.00
2012,07,14,13,46,24.00
2012,07,14,13,47,23.90
2012,07,14,13,48,23.90
2012,07,14,13,49,23.90
2012,07,14,13,50,23.80
2012,07,14,13,51,23.70
2012,07,14,13,52,23.70
2012,07,14,13,53,23.70
2012,07,14,13,54,23.60
2012,07,14,13,55,23.60
2012,07,14,13,56,23.50
2012,07,14,13,57,23.40
2012,07,14,13,58,23.40
2012,07,14,13,59,23.30
2012,07,14,14,00,23.30
2012,07,14,14,01,23.30
2012,07,14,14,02,23.30
2012,07,14,14,03,23.30
2012,07,14,14,04,23.20
2012,07,14,14,05,23.20
2012,07,14,14,06,23.20
2012,07,14,14,07,23.20
2012,07,14,14,08,23.20
2012,07,14,14,09,23.10
2012,07,14,14,10,23.10
2012,07,14,14,11,23.00
2012,07,14,14,12,22.90
2012,07,14,14,13,22.80
2012,07,14,14,14,22.80
2012,07,14,14,15,22.80
2012,07,14,14,16,22.70
2012,07,14,14,17,22.70
2012,07,14,14,18,22.70
2012,07,14,14,19,22.70
2012,07,14,14,20,22.80
2012,07,14,14,21,22.80
2012,07,14,14,22,22.80
2012,07,14,14,23,22.90
2012,07,14,14,24,22.90
2012,07,14,14,25,22.90
2012,07,14,14,26,22.90
2012,07,14,14,27,22.90
2012,07,14,14,28,22.90
2012,07,14,14,29,22.80
2012,07,14,14,30,22.80
2012,07,14,14,31,22.70
2012,07,14,14,32,22.70
2012,07,14,14,33,22.60
2012,07,14,14,34,22.60
2012,07,14,14,35,22.50
2012,07,14,14,36,22.50
2012,07,14,14,37,22.50
2012,07,14,14,38,22.50
2012,07,14,14,39,22.50
2012,07,14,14,40,22.60
2012,07,14,14,41,22.70
2012,07,14,14,42,22.80
2012,07,14,14,43,23.00
2012,07,14,14,44,23.10
2012,07,14,14,45,23.20
2012,07,14,14,46,23.20
2012,07,14,14,47,23.30
2012,07,14,14,48,23.40
2012,07,14,14,49,23.50
2012,07,14,14,50,23.60
2012,07,14,14,51,23.70
2012,07,14,14,52,23.80
2012,07,14,14,53,23.80
2012,07,14,14,54,23.90
2012,07,14,14,55,23.90
2012,07,14,14,56,23.90
2012,07,14,14,57,23.90
2012,07,14,14,58,24.00
2012,07,14,14,59,24.10
2012,07,14,15,00,24.20
2012,07,14,15,01,24.30
2012,07,14,15,02,24.40
2012,07,14,15,03,24.50
2012,07,14,15,04,24.50
2012,07,14,15,05,24.60
2012,07,14,15,06,24.70
2012,07,14,15,07,24.70
2012,07,14,15,08,24.70
2012,07,14,15,09,24.70
2012,07,14,15,10,24.80
2012,07,14,15,11,24.80
2012,07,14,15,12,24.80
2012,07,14,15,13,24.70
2012,07,14,15,14,24.70
2012,07,14,15,15,24.60
2012,07,14,15,16,24.50
2012,07,14,15,17,24.50
2012,07,14,15,18,24.40
2012,07,14,15,19,24.40
2012,07,14,15,20,24.40
2012,07,14,15,21,24.30
2012,07,14,15,22,24.20
2012,07,14,15,23,24.20
2012,07,14,15,24,24.20
2012,07,14,15,25,24.20
2012,07,14,15,26,24.20
2012,07,14,15,27,24.20
2012,07,14,15,28,24.30
2012,07,14,15,29,24.30
2012,07,14,15,30,24.30
2012,07,14,15,31,24.30
2012,07,14,15,32,24.30
2012,07,14,15,33,24.20
2012,07,14,15,34,24.20
2012,07,14,15,35,24.20
2012,07,14,15,36,24.20
2012,07,14,15,37,24.30
2012,07,14,15,38,24.40
2012,07,14,15,39,24.50
2012,07,14,15,40,24.50
2012,07,14,15,41,24.60
2012,07,14,15,42,24.80
2012,07,14,15,43,24.90
2012,07,14,15,44,24.90
2012,07,14,15,45,25.00
2012,07,14,15,46,25.10
2012,07,14,15,47,25.10
2012,07,14,15,48,25.20
2012,07,14,15,49,25.20
2012,07,14,15,50,25.20
2012,07,14,15,51,25.10
2012,07,14,15,52,25.00
2012,07,14,15,53,24.80
2012,07,14,15,54,24.70
2012,07,14,15,55,24.70
2012,07,14,15,56,24.70
2012,07,14,15,57,24.60
2012,07,14,15,58,24.50
2012,07,14,15,59,24.30
2012,07,14,16,00,24.20
2012,07,14,16,01,24.20
2012,07,14,16,02,24.20
2012,07,14,16,03,24.20
2012,07,14,16,04,24.20
2012,07,14,16,05,24.00
2012,07,14,16,06,23.90
2012,07,14,16,07,23.90
2012,07,14,16,08,24.00
2012,07,14,16,09,23.90
2012,07,14,16,10,23.90
2012,07,14,16,11,23.80
2012,07,14,16,12,23.70
2012,07,14,16,13,23.60
2012,07,14,16,14,23.60
2012,07,14,16,15,23.60
2012,07,14,16,16,23.50
2012,07,14,16,17,23.40
2012,07,14,16,18,23.40
2012,07,14,16,19,23.50
2012,07,14,16,20,23.50
2012,07,14,16,21,23.40
2012,07,14,16,22,23.50
2012,07,14,16,23,23.50
2012,07,14,16,24,23.60
2012,07,14,16,25,23.70
2012,07,14,16,26,23.70
2012,07,14,16,27,23.80
2012,07,14,16,28,23.80
2012,07,14,16,29,23.80
2012,07,14,16,30,23.70
2012,07,14,16,31,23.70
2012,07,14,16,32,23.70
2012,07,14,16,33,23.70
2012,07,14,16,34,23.70
2012,07,14,16,35,23.80
2012,07,14,16,36,23.80
2012,07,14,16,37,23.90
2012,07,14,16,38,23.90
2012,07,14,16,39,23.80
2012,07,14,16,40,23.80
2012,07,14,16,41,23.80
2012,07,14,16,42,23.80
2012,07,14,16,43,23.80
2012,07,14,16,44,23.80
2012,07,14,16,45,23.90
2012,07,14,16,46,23.90
2012,07,14,16,47,23.80
2012,07,14,16,48,23.80
2012,07,14,16,49,23.90
2012,07,14,16,50,23.90
2012,07,14,16,51,24.00
2012,07,14,16,52,24.10
2012,07,14,16,53,24.10
2012,07,14,16,54,24.20
2012,07,14,16,55,24.20
2012,07,14,16,56,24.10
2012,07,14,16,57,24.00
2012,07,14,16,58,23.90
2012,07,14,16,59,23.70
2012,07,14,17,00,23.60
2012,07,14,17,01,23.50
2012,07,14,17,02,23.50
2012,07,14,17,03,23.40
2012,07,14,17,04,23.40
2012,07,14,17,05,23.30
2012,07,14,17,06,23.20
2012,07,14,17,07,23.20
2012,07,14,17,08,23.10
2012,07,14,17,09,23.10
2012,07,14,17,10,23.10
2012,07,14,17,11,23.10
2012,07,14,17,12,23.10
2012,07,14,17,13,23.10
2012,07,14,17,14,23.10
2012,07,14,17,15,23.10
2012,07,14,17,16,23.20
2012,07,14,17,17,23.30
2012,07,14,17,18,23.30
2012,07,14,17,19,23.30